RH
45 47 47 46 47 51 55 55 56 57 59 58 58 59 57 54 52 51 48 44 44 43 42 41 39 38 36 36 35 37 42 43 40 40 44 48 49 52 55 56 55 55 53 52 51 50 48 44 38 34 33 33 35 36 39 40 41 43 43 41 39 38 37 38 38 39 40 40 41 40 41 42 43 44 45 45 45 44 44 44 44 44 44 43 42
49 51 49 47 49 53 56 57 58 60 61 59 59 59 55 54 53 51 47 45 44 43 42 41 39 39 38 37 36 36 40 42 40 38 41 45 46 50 53 54 55 55 54 53 53 52 52 49 44 42 39 37 37 37 37 38 38 38 39 39 39 39 39 40 41 42 42 42 41 41 41 41 42 43 44 44 44 42 42 43 43 44 44 44 44
52 52 51 51 53 56 58 60 60 59 59 57 57 57 56 56 55 52 49 45 43 41 41 40 39 39 38 37 35 36 39 39 40 37 38 42 42 46 52 53 53 52 52 51 52 53 55 52 48 47 46 44 44 44 43 42 41 41 42 43 43 42 42 43 43 42 41 40 39 39 39 40 40 41 42 43 43 42 43 44 44 45 44 45 45
53 53 54 55 55 56 60 62 60 58 57 58 57 57 58 60 58 56 52 48 45 43 40 38 37 36 35 35 34 37 38 39 40 36 34 37 36 40 48 51 51 49 49 50 50 51 54 53 49 48 48 47 48 47 46 45 45 44 43 43 42 42 41 41 41 40 38 37 37 37 38 39 39 41 42 43 44 45 46 47 46 46 46 46 45
55 55 55 56 55 55 60 62 60 58 57 58 57 57 59 61 61 58 54 49 48 47 42 37 35 33 33 32 32 36 39 39 41 38 33 32 32 34 42 47 47 47 46 47 47 48 51 51 48 47 47 48 48 47 46 45 44 43 42 41 40 40 40 40 41 40 39 39 39 38 40 40 40 43 46 46 47 47 48 48 47 46 46 45 44
57 56 55 55 55 56 59 61 61 58 55 55 56 57 57 58 60 59 54 48 47 48 47 42 36 32 31 31 31 35 39 40 41 40 35 31 30 32 36 39 41 43 43 42 43 43 45 47 46 45 45 47 47 46 45 46 46 45 43 41 40 41 42 42 42 42 43 44 42 41 43 42 42 45 47 47 47 47 47 46 45 44 43 43 42
58 57 56 55 56 58 61 60 59 57 55 54 55 56 56 57 59 58 54 48 46 47 48 47 41 34 31 30 32 35 39 41 41 41 39 34 31 32 33 35 38 39 40 40 41 42 42 42 43 43 43 44 44 45 46 47 48 49 47 45 44 44 44 44 43 43 44 45 44 44 45 45 45 46 46 46 45 44 44 44 43 41 40 40 39
58 57 56 56 57 60 62 60 58 57 56 55 55 55 55 56 57 57 54 50 48 46 46 48 46 38 32 31 33 36 39 40 40 40 40 39 38 37 36 37 38 38 39 39 40 41 40 39 41 41 41 42 43 44 46 47 47 49 49 48 48 47 45 44 43 45 46 46 47 48 47 46 46 45 45 44 43 42 42 43 42 38 35 35 33
57 56 55 55 57 59 60 59 58 58 57 56 56 55 54 56 56 57 55 52 51 49 47 49 48 41 35 34 36 38 38 39 41 41 39 39 40 40 41 41 41 39 39 38 39 39 38 37 39 39 40 41 42 42 43 44 45 46 47 47 48 47 45 44 45 47 48 47 49 49 47 45 45 43 43 43 42 41 41 39 36 33 31 31 29
55 55 55 55 56 58 57 58 57 57 57 56 55 54 54 55 54 55 55 53 52 50 49 49 48 43 38 38 41 41 39 39 42 43 40 38 38 38 39 40 40 40 40 39 39 38 38 37 38 39 40 40 40 40 40 41 41 42 43 44 45 45 44 45 46 48 48 46 46 47 46 44 43 42 42 41 41 39 36 33 31 29 28 26 23
53 53 55 54 56 58 56 56 56 54 53 54 54 53 53 53 52 53 55 55 54 50 48 49 48 46 40 40 44 43 41 40 42 44 41 38 35 34 33 34 35 37 38 39 39 38 38 37 36 38 39 39 39 39 38 38 38 39 41 43 43 42 41 41 41 43 43 44 44 45 45 44 43 42 39 37 35 32 30 28 26 25 22 19 17
52 52 53 53 54 56 56 55 53 50 49 51 51 50 50 48 47 50 52 53 53 50 48 50 50 48 43 41 44 45 44 43 42 43 42 38 34 33 32 30 29 29 29 31 34 35 35 33 32 32 33 34 34 34 34 33 34 36 38 39 37 36 37 36 37 37 37 39 41 42 44 44 43 39 34 31 29 27 24 23 22 21 19 18 19
51 51 52 53 54 55 54 52 50 49 49 49 48 47 45 44 43 45 48 48 49 48 48 49 49 49 46 43 44 46 46 46 43 41 40 39 36 34 31 27 26 25 24 24 26 27 28 28 28 29 30 29 29 29 28 29 30 32 33 32 32 34 33 32 32 33 33 34 36 38 40 39 38 34 30 27 25 24 22 21 20 19 20 21 23
50 50 50 51 53 54 53 51 49 48 47 47 47 46 43 43 44 45 45 45 45 45 45 46 46 46 46 46 47 48 47 47 45 41 40 38 36 34 31 29 28 28 26 23 22 22 23 25 26 27 29 29 29 29 28 28 29 29 30 31 33 33 29 27 29 30 30 31 32 34 35 35 34 33 30 28 26 24 22 21 20 21 22 24 24
47 48 48 49 50 52 51 49 48 46 46 46 46 46 43 42 44 45 44 44 44 43 43 44 45 43 43 45 47 47 48 47 46 44 41 38 36 36 35 33 34 34 33 29 27 27 27 29 30 31 33 32 32 32 30 30 30 31 33 34 34 31 27 25 25 25 26 28 31 33 34 35 34 33 32 30 28 26 22 21 21 22 23 23 23
43 45 46 47 47 48 48 47 46 45 44 45 46 46 44 42 42 45 46 47 46 43 42 43 44 44 43 42 42 43 44 44 45 43 41 39 38 39 39 39 40 40 40 37 35 34 35 36 37 37 37 36 34 32 31 31 31 33 34 33 31 29 26 23 23 24 25 28 30 32 33 34 33 32 31 29 26 23 21 21 22 22 21 21 22
39 41 43 45 46 45 44 44 44 45 43 43 46 47 44 42 43 45 47 48 48 45 43 43 44 45 44 44 44 43 42 40 42 42 40 42 42 41 40 40 41 41 40 39 37 36 37 38 38 37 37 35 32 31 31 31 31 32 32 30 29 27 25 25 26 28 29 29 28 28 29 30 29 29 28 26 24 23 23 23 24 23 23 24 24
35 37 41 44 45 44 43 42 42 43 42 42 45 46 45 44 44 46 47 48 47 46 45 43 43 44 43 44 44 43 43 42 43 44 42 43 43 42 41 39 40 40 38 37 35 34 35 36 36 36 35 32 31 33 33 32 31 30 30 30 29 29 29 30 30 31 31 30 30 30 30 31 31 31 31 30 29 29 28 27 25 25 26 28 27
33 35 39 42 43 44 43 42 41 41 42 42 43 45 47 46 45 47 47 47 47 47 48 46 44 43 42 42 42 41 43 44 45 46 45 44 42 42 40 38 38 38 37 36 35 33 32 33 34 34 34 33 33 35 35 33 32 31 32 32 33 33 33 33 33 33 34 34 34 34 34 35 36 36 36 36 37 36 34 32 29 28 28 29 29
31 33 36 40 42 43 43 42 42 41 41 40 41 43 46 47 46 46 46 46 46 48 50 49 46 45 43 43 43 42 42 43 44 45 46 45 43 41 39 37 36 36 35 36 35 33 32 32 34 34 35 35 36 36 37 37 36 35 35 35 34 34 33 33 34 34 35 36 36 36 36 36 37 38 39 40 41 41 40 39 38 36 34 31 30
30 31 33 37 40 41 42 42 41 41 39 38 39 41 44 46 46 46 45 45 46 47 49 49 49 48 45 44 44 44 43 42 42 43 45 45 44 42 40 39 37 37 37 37 37 36 34 34 35 36 36 37 38 40 40 40 38 36 34 33 33 33 33 34 34 34 34 35 36 36 35 36 37 38 40 42 43 44 45 45 46 45 44 40 35
29 29 31 34 37 39 40 40 39 39 39 37 37 39 41 44 46 46 45 45 46 46 47 48 48 47 45 44 44 44 43 42 42 43 44 44 44 42 41 40 40 39 38 37 38 37 36 36 37 38 38 39 40 40 40 39 35 33 32 32 32 33 34 34 34 33 32 33 34 34 35 36 38 39 40 42 44 47 48 49 50 50 51 49 46
28 28 29 32 34 35 36 37 37 38 38 37 36 37 39 42 45 46 45 45 46 46 46 46 46 44 43 43 43 43 43 42 43 43 43 44 44 43 42 41 40 39 37 36 37 37 37 36 36 37 37 37 37 35 34 32 31 31 31 31 32 32 33 33 33 32 31 32 32 34 35 37 38 40 41 43 44 47 49 50 51 52 52 53 52
28 28 28 30 32 33 34 35 35 35 35 36 35 36 37 39 42 45 45 44 44 45 45 45 45 44 43 43 44 45 43 41 42 42 42 44 44 44 43 42 41 40 38 37 37 36 36 35 34 34 34 34 33 32 31 30 31 32 32 33 33 33 33 33 34 34 33 32 32 34 36 38 39 41 42 43 44 45 46 49 50 51 51 52 53
27 28 27 29 30 31 32 32 33 33 33 34 35 35 35 36 39 42 44 43 43 43 43 44 44 43 43 44 45 46 44 41 41 41 42 44 43 42 42 42 42 41 38 36 35 35 34 35 35 35 35 35 35 34 34 33 33 34 35 36 36 36 36 36 35 35 35 35 35 36 38 39 41 42 43 43 43 43 43 46 48 49 50 51 51
27 27 27 27 29 31 31 31 32 33 33 34 35 35 35 35 36 39 41 42 42 42 41 41 42 41 42 44 45 46 45 43 42 42 43 44 43 41 41 41 42 41 38 35 35 35 35 35 36 37 37 37 37 37 36 35 35 36 37 37 37 38 38 38 38 37 37 37 38 40 41 42 42 42 41 42 44 45 45 45 46 48 50 51 51
26 26 26 27 28 30 32 32 32 33 34 34 35 36 36 36 37 38 40 41 42 41 40 40 40 40 41 42 44 45 44 43 42 42 42 43 42 40 40 40 42 42 40 38 36 35 35 35 35 36 36 37 37 37 37 36 36 36 37 37 38 38 38 39 39 39 40 41 42 44 44 44 44 43 43 44 46 48 49 48 47 48 50 51 51
26 26 26 27 28 29 30 30 30 30 32 33 34 35 35 36 37 38 40 41 43 43 42 41 41 41 41 42 44 45 44 44 42 41 41 41 40 40 39 40 41 41 42 41 37 35 35 35 35 36 36 36 36 36 36 36 36 36 37 37 37 38 38 39 40 42 43 45 47 47 47 46 46 46 47 47 48 50 51 51 50 49 50 51 51
25 26 26 26 27 27 27 27 27 27 28 30 31 32 32 33 34 36 38 40 42 44 44 43 43 43 42 42 44 45 45 44 42 41 41 41 40 40 40 41 41 41 42 41 37 35 35 35 36 35 35 35 35 35 35 34 34 35 36 36 37 38 39 40 42 44 45 46 47 48 49 49 48 48 49 49 49 51 52 53 53 52 51 51 51
25 26 26 26 26 25 25 25 25 25 25 26 28 30 31 31 32 32 34 35 38 41 43 43 43 43 43 42 42 44 45 44 43 41 41 40 40 40 40 40 40 40 41 41 36 33 34 34 35 34 34 34 33 33 34 33 34 35 36 37 38 39 40 41 43 44 45 45 45 46 48 49 50 50 50 49 49 48 49 51 53 54 53 52 52
25 25 26 26 25 24 24 24 23 22 22 23 25 27 29 30 30 31 31 32 34 36 39 40 41 42 42 42 41 41 43 43 43 42 41 40 40 40 40 39 39 38 38 39 36 32 31 32 32 32 32 33 34 34 34 34 35 36 37 38 38 39 40 41 41 42 43 44 44 45 46 48 49 49 49 49 48 47 46 46 47 50 52 53 52
24 25 25 25 25 25 25 24 21 19 20 21 22 25 28 29 30 30 30 31 32 33 35 36 37 39 39 40 40 39 40 41 41 41 40 39 40 40 40 39 38 37 36 37 36 33 31 31 31 32 32 33 34 34 35 35 36 37 37 37 37 38 38 38 39 39 40 41 42 43 44 45 46 45 45 46 45 45 44 44 44 45 47 49 51
23 24 24 24 26 26 25 23 20 18 18 19 20 22 26 29 30 30 30 31 32 32 33 34 35 36 37 38 38 38 38 38 38 39 39 38 38 38 39 39 39 39 38 37 36 35 34 33 33 33 33 33 34 34 35 36 36 36 37 36 37 37 38 38 39 39 39 40 41 41 42 43 43 43 42 42 41 41 42 43 43 43 43 44 47
23 24 24 25 26 25 24 21 18 17 17 17 18 20 24 28 30 31 31 31 32 32 32 33 34 35 36 37 37 37 37 36 35 36 35 36 37 37 38 38 38 39 39 39 38 38 38 37 35 35 34 33 33 33 33 34 35 35 36 36 36 37 38 38 39 40 40 41 41 42 42 43 44 44 43 43 43 43 43 43 43 43 42 42 43
23 24 25 25 25 24 21 19 16 15 15 16 17 18 22 27 31 31 31 32 32 31 31 32 32 33 34 34 34 35 34 33 33 33 33 34 34 34 35 35 36 37 38 39 39 40 39 38 37 36 35 34 33 33 34 34 35 35 36 36 37 38 38 39 40 41 41 41 42 42 43 43 44 45 46 47 48 48 47 45 44 43 43 43 43
22 22 23 24 23 22 20 17 15 14 14 15 17 19 22 27 29 29 30 31 31 30 29 29 30 31 32 32 31 31 30 30 30 30 30 31 31 31 31 31 32 33 36 37 38 38 37 35 33 33 34 34 34 34 34 35 35 36 37 38 38 39 39 40 40 40 40 40 41 42 42 43 44 44 45 46 47 48 49 48 47 45 44 44 44
21 21 21 22 21 19 18 16 15 14 14 16 19 21 23 26 28 28 28 28 29 28 28 29 29 29 30 29 29 27 27 27 28 28 28 28 28 28 28 29 30 33 35 36 35 34 33 32 31 32 32 33 33 33 32 34 35 36 37 37 38 39 38 38 39 40 39 40 41 42 43 44 45 44 44 45 45 45 47 48 48 48 48 49 50
19 19 19 19 18 17 16 15 14 14 15 17 20 22 23 25 26 26 26 25 25 25 26 27 27 27 27 26 25 24 24 24 25 25 25 25 25 25 27 29 32 34 33 32 31 31 32 33 33 33 33 33 34 33 32 33 36 37 37 37 37 38 37 37 39 39 39 40 40 41 42 43 44 44 43 42 41 41 42 44 47 49 52 53 53
19 18 17 16 15 15 14 14 13 13 15 18 21 22 22 23 24 24 23 23 23 23 24 24 25 25 24 24 22 22 22 22 22 22 23 23 24 26 28 30 31 31 29 29 30 30 32 33 33 33 33 34 34 34 35 37 38 39 39 38 39 40 39 39 41 43 44 44 43 43 43 44 45 46 44 41 40 42 43 43 44 46 50 52 51
19 18 16 15 14 14 14 13 12 13 16 19 21 22 22 22 22 22 21 21 21 22 22 22 23 22 21 21 20 20 20 20 20 21 22 24 25 26 27 28 28 28 28 29 30 32 33 35 35 34 35 37 39 41 42 43 43 44 45 45 44 45 45 46 48 50 52 52 51 49 49 48 49 50 47 43 42 44 47 48 45 44 46 48 48
19 18 16 15 14 14 13 12 12 15 18 20 21 21 21 21 21 21 20 21 21 21 21 21 20 19 17 17 17 17 18 18 19 20 22 24 26 26 27 28 30 31 31 32 35 37 39 41 43 45 47 48 48 48 49 51 51 51 52 53 52 51 53 55 56 56 55 55 55 54 54 54 55 54 52 50 50 51 53 54 52 51 50 49 47
19 18 17 16 14 13 12 12 13 16 19 20 20 20 21 21 21 20 19 19 19 19 18 17 17 16 15 16 16 17 17 19 20 22 24 26 28 29 30 32 34 35 36 38 40 42 45 48 52 56 57 57 56 55 55 56 56 56 56 57 56 56 57 57 57 56 56 58 59 57 57 59 59 57 54 54 56 58 58 58 59 59 59 56 53
20 19 17 16 14 13 13 13 15 18 19 20 20 20 21 21 21 20 19 18 17 16 15 15 15 15 15 17 17 19 20 21 23 25 27 28 30 31 32 34 37 40 42 45 47 49 51 53 56 59 60 60 60 59 58 58 58 58 59 58 58 58 58 58 57 56 57 59 61 58 54 54 55 54 51 51 53 56 57 58 59 63 66 64 57
20 20 19 18 15 14 15 16 18 20 20 19 19 20 21 21 21 20 19 18 16 15 14 14 15 16 18 19 20 22 23 25 27 28 29 31 32 34 36 38 42 45 47 49 52 53 54 54 56 59 61 61 61 60 58 58 59 60 61 61 60 59 58 57 55 55 54 55 56 54 50 48 49 51 48 48 53 56 56 56 57 64 71 66 60
21 21 21 20 18 17 18 19 21 22 21 20 19 20 20 21 21 21 20 18 16 15 15 16 17 19 21 22 23 25 27 28 29 30 32 35 37 39 41 44 46 47 48 50 52 53 54 54 54 56 58 58 58 59 59 60 61 63 63 61 59 57 55 52 50 50 50 49 49 50 46 43 45 47 43 43 49 53 54 54 55 61 68 67 66
21 21 22 21 21 20 22 22 23 24 23 22 21 21 21 21 21 21 20 18 17 16 17 18 20 22 24 25 26 28 29 30 30 32 35 40 42 43 44 45 46 46 47 50 52 53 53 53 53 54 57 57 57 59 61 62 61 61 59 55 54 53 50 48 46 47 48 46 45 47 44 40 43 45 40 39 44 46 46 49 53 56 62 67 69
21 21 21 22 23 24 25 25 26 26 25 24 24 24 23 22 22 22 21 20 18 18 19 21 23 25 26 28 29 29 30 30 32 35 39 43 45 45 46 47 47 47 48 50 52 53 53 53 54 56 57 58 58 61 62 61 57 55 54 52 51 50 49 47 44 43 45 45 44 45 43 41 43 44 38 36 40 40 39 43 49 54 58 61 62
21 21 21 22 24 27 28 29 29 28 26 26 26 26 26 25 25 24 23 21 19 20 22 24 26 28 29 30 30 30 31 32 35 38 42 45 46 47 48 49 48 48 51 54 55 54 54 55 57 58 58 59 61 62 61 58 54 54 54 51 49 50 51 49 44 39 40 41 41 42 41 39 41 42 38 36 38 38 36 37 42 47 51 53 53
21 21 21 23 26 29 30 31 32 30 28 27 27 27 28 28 28 28 25 22 21 22 24 27 29 30 31 31 31 31 34 36 38 42 46 47 48 49 51 52 51 50 54 58 57 54 54 56 58 60 60 61 63 62 58 56 54 55 53 49 47 51 51 47 41 37 35 36 37 40 41 38 39 41 39 37 38 37 36 35 36 39 42 44 46
21 21 22 25 29 31 32 33 33 32 31 30 28 28 30 31 31 31 28 26 25 25 27 29 30 31 31 31 32 35 37 40 42 46 48 49 50 52 54 54 53 53 57 60 58 56 57 59 60 61 61 62 62 60 56 53 51 52 51 46 44 45 44 40 38 36 35 31 29 36 40 38 39 41 40 38 37 36 36 35 37 38 38 39 41
23 24 25 28 31 33 34 35 35 34 34 34 31 31 32 33 34 33 33 32 30 29 30 32 32 32 33 33 35 38 41 44 47 49 51 51 52 54 55 55 55 54 56 58 58 58 60 61 61 61 61 61 62 58 51 46 44 44 44 42 41 41 39 38 37 37 35 30 27 33 38 37 37 39 39 39 39 36 36 36 36 37 37 38 40